STARLINK-38327, 100629

Orbit data source: Space-Track

STARLINK-38327, 100629 is a payload satellite owned by SpaceX/Seattle (US) in LEO that was launched on Sun, 06 Sep 2026 UTC launched from the Air Force Western Test Range (AFWTR). Payload-class satellites include a variety of spacecraft equipped with specific instruments for various scientific and technological missions. These include communications satellites like Starlink; space stations such as the ISS; scientific satellites like the Hubble; Earth observation satellites from companies like Planet Labs, Umbra, and HawkEye 360; GPS; miniature CubeSats for education and research; and military/defense satellites.

Not visible in the next 10 days
Identifier
100629, 2026-204Q
Orbit
LEO
Country
Flag of USUS
Related business
Manufacturer
SpaceX/Seattle
Mission
Operational spacecraft
Bus & Motor
STARLINK V2MO, Unknown motor
Mass
575 kg wet, ~530 kg dry
Launch date (UTC)
2026-09-06 (5 days ago)
Launch vehicle
Unknown
Launch site
Air Force Western Test Range (AFWTR)
Object type
Payload
Rocket body
Debris
Shape & HBR
BOX + PAN, 17.7 m
Radar Cross Section
RCS unknown

Expand to show TLE details & history
Last TLE update: 21 hours ago

TLE from 21 hours ago
0 STARLINK-38327
1 A0629U          26253.56717458 -.01113445  40535-3 -20575-2 0  9990
2 A0629  69.9973 266.2434 0004950 271.6048  88.4597 16.00983959   646
Epoch: 2026-09-10T13:36Z
TLE epoch observation values (Epoch: 2026-09-10T13:36:43.883Z)
Latitude
0.00002°
Longitude
72.45753°
Altitude
274.139 km
Speed
7.743 km/s
True Right ascension
17h 44m 58s
True Declination
0° 00' 00"
Sunlit
Object was in daylight at epoch
Visualization orbit readout
Latitude
Unknown
Longitude
Unknown
Altitude
Unknown
Speed
Unknown
Apparent Right ascension
Unknown
Apparent Declination
Unknown
Sunlit
N/A
Visualization observer readout
Local Sidereal Time
02:29:40
Azimuth
Unknown
Elevation
Unknown
Doppler factor
Unknown
Orbital elements
Apogee altitude
272.839 km
Perigee altitude
266.258 km
Semi-major axis
6,647.685 km
Eccentricity
0.0005
Inclination
69.9973°
RAAN
266.2434°
Arg. of periapsis
271.6048°
True anomaly
88.5164°
Mean anomaly
88.4597°
Eccentric anomaly
88.48805°
Mean motion
4.0044 °/min
Orbital period
89.9 mins
BSTAR
-0.0020575
Loading maneuver chart data...
Computing Atmospheric mass density...
Loading historical data...
Loading historical data...
Loading historical data...
Loading historical data...
Loading historical data...
Loading historical data...
Loading historical data...

Documentation

Showing up to 5 results
|